Find Starlink 31886

NORAD ID: 59662 Int'l Des: 2024-084 Owner: SPXS Country: US Constellation: starlink operational
LEOCIRCULAR

实时位置

正在加载3D地球...

关于 Starlink 31886

正在加载描述...

即将过境

Passes for default location (London). Set your location on the main map for personalized predictions.

高度历史

Loading altitude history...

两行轨道根数

1 59662U 24084J 26128.99075286 .00001761 00000-0 73481-4 0 9993
2 59662 43.0044 61.4034 0000781 265.2016 94.8747 15.27583085113593
Epoch: May 8, 2026 • Age: 26 hours

当前状态

高度 484.5 km
速度 7.62 km/s
星下点 -9.68°S, 8.08°W
发射日期 May 6, 2024
运行时间 2 years
类型 internet

技术详情

分类 Payload
质量 730.00 kg
干质量 700.00 kg
总质量 730.00 kg
长度 0.30 m
直径 4.10 m
跨度 29.00 m
形状 Box + pan
制造商 SPXS
平台类型 Starlink V2M
阶段状态 In Orbit
所有者/国家 SPXS/US

Most Searched